W5HRH Weather Reports


Display with metric or nautical units.
time (UTC)temp
F
wind
direction
speed
MPH
gust
MPH
rain 1hr
in
rain 24hr
in
rain mn
in
humidity
%
barometer
mb
20220116192520 52 271 2.0 7.0 0.00 0.00 0.00 54 1020.6
20220116192021 51 313 2.0 9.0 0.00 0.00 0.00 54 1020.6
20220116191536 51 330 3.0 10.0 0.00 0.00 0.00 54 1020.7
20220116191017 51 257 2.0 8.0 0.00 0.00 0.00 55 1020.9
20220116190517 50 300 4.0 8.0 0.00 0.00 0.00 55 1020.9
20220116190027 50 313 1.0 9.0 0.00 0.00 0.00 57 1021.0
20220116185514 50 337 3.0 11.0 0.00 0.00 0.00 55 1021.2
20220116185014 50 317 4.0 11.0 0.00 0.00 0.00 56 1021.4
20220116184514 50 315 5.0 10.0 0.00 0.00 0.00 56 1021.3
20220116184013 50 346 2.0 7.0 0.00 0.00 0.00 56 1021.4
20220116183510 49 343 2.0 10.0 0.00 0.00 0.00 57 1021.3
20220116183018 49 308 3.0 10.0 0.00 0.00 0.00 56 1021.5
20220116182509 49 286 3.0 8.0 0.00 0.00 0.00 57 1021.6
20220116182008 49 349 3.0 11.0 0.00 0.00 0.00 58 1021.7
20220116181513 48 316 4.0 11.0 0.00 0.00 0.00 57 1021.8
20220116181009 48 355 2.0 11.0 0.00 0.00 0.00 57 1021.9
20220116180507 48 289 3.0 9.0 0.00 0.00 0.00 57 1022.1
20220116180009 48 310 3.0 6.0 0.00 0.00 0.00 58 1022.1
20220116175510 48 299 2.0 8.0 0.00 0.00 0.00 59 1022.3
20220116175020 47 306 2.0 9.0 0.00 0.00 0.00 58 1022.2
20220116174512 47 299 1.0 9.0 0.00 0.00 0.00 59 1022.4
20220116174003 47 311 2.0 9.0 0.00 0.00 0.00 59 1022.6
20220116173503 46 237 2.0 11.0 0.00 0.00 0.00 60 1022.7
20220116173006 46 338 3.0 11.0 0.00 0.00 0.00 60 1023.0
20220116172502 46 271 2.0 7.0 0.00 0.00 0.00 60 1022.9
20220116171643 45 343 3.0 9.0 0.00 0.00 0.00 60 1022.9
20220116171107 45 258 3.0 9.0 0.00 0.00 0.00 61 1023.0
20220116170558 45 344 3.0 11.0 0.00 0.00 0.00 61 1023.0
20220116170119 45 36 4.0 11.0 0.00 0.00 0.00 61 1023.0
20220116165559 45 313 3.0 8.0 0.00 0.00 0.00 61 1023.1
20220116165100 44 302 1.0 6.0 0.00 0.00 0.00 63 1023.1
20220116164731 44 313 2.0 6.0 0.00 0.00 0.00 62 1023.1
20220116164054 44 280 1.0 8.0 0.00 0.00 0.00 63 1022.9
20220116163600 43 331 3.0 8.0 0.00 0.00 0.00 63 1023.2
20220116163126 43 329 3.0 9.0 0.00 0.00 0.00 63 1023.2
20220116162614 43 304 2.0 9.0 0.00 0.00 0.00 63 1023.2
20220116162058 42 344 2.0 8.0 0.00 0.00 0.00 64 1023.2
20220116161654 42 319 3.0 8.0 0.00 0.00 0.00 63 1023.3
20220116161052 42 319 3.0 10.0 0.00 0.00 0.00 64 1023.3
20220116160547 41 323 3.0 10.0 0.00 0.00 0.00 64 1023.3
20220116160109 41 302 2.0 6.0 0.00 0.00 0.00 65 1023.3
20220116155546 41 313 1.0 8.0 0.00 0.00 0.00 65 1023.3
20220116155045 41 271 3.0 8.0 0.00 0.00 0.00 64 1023.4
20220116154630 40 277 1.0 10.0 0.00 0.00 0.00 65 1023.3
20220116154042 40 318 4.0 10.0 0.00 0.00 0.00 65 1023.4
20220116153543 40 348 4.0 8.0 0.00 0.00 0.00 65 1023.4
20220116153100 39 273 3.0 9.0 0.00 0.00 0.00 66 1023.4
20220116152539 39 310 2.0 9.0 0.00 0.00 0.00 66 1023.3
20220116152044 39 304 2.0 10.0 0.00 0.00 0.00 66 1023.3
20220116151545 39 15 4.0 10.0 0.00 0.00 0.00 66 1023.4
20220116151048 38 305 2.0 10.0 0.00 0.00 0.00 67 1023.6
20220116150537 38 276 3.0 11.0 0.00 0.00 0.00 67 1023.5
20220116150118 38 349 3.0 11.0 0.00 0.00 0.00 67 1023.5
20220116145545 38 331 3.0 10.0 0.00 0.00 0.00 67 1023.5
20220116145037 37 273 3.0 9.0 0.00 0.00 0.00 68 1023.5
20220116144534 37 311 3.0 9.0 0.00 0.00 0.00 68 1023.4
20220116144032 37 330 3.0 5.0 0.00 0.00 0.00 68 1023.4
20220116143532 37 275 1.0 5.0 0.00 0.00 0.00 68 1023.4
20220116143034 36 225 2.0 11.0 0.00 0.00 0.00 69 1023.3
20220116142533 36 287 3.0 11.0 0.00 0.00 0.00 69 1023.3
20220116142030 36 340 3.0 8.0 0.00 0.00 0.00 70 1023.3
20220116141613 36 323 3.0 8.0 0.00 0.00 0.00 70 1023.2
20220116141056 35 311 2.0 8.0 0.00 0.00 0.00 70 1023.1
20220116140544 35 314 2.0 5.0 0.00 0.00 0.00 70 1023.1
20220116140037 35 317 1.0 5.0 0.00 0.00 0.00 71 1023.2
20220116135530 35 312 1.0 6.0 0.00 0.00 0.00 71 1023.1
20220116135032 35 327 1.0 6.0 0.00 0.00 0.00 71 1023.0
20220116134532 35 297 0.0 3.0 0.00 0.00 0.00 71 1023.0
20220116134028 35 348 1.0 6.0 0.00 0.00 0.00 71 1023.0
20220116133528 35 322 2.0 6.0 0.00 0.00 0.00 71 1022.9
20220116133057 34 40 1.0 6.0 0.00 0.00 0.00 71 1022.9
20220116132532 34 5 2.0 5.0 0.00 0.00 0.00 71 1022.8
20220116132031 35 335 1.0 8.0 0.00 0.00 0.00 71 1022.8
20220116131538 35 307 2.0 8.0 0.00 0.00 0.00 71 1022.9
20220116131032 35 344 1.0 8.0 0.00 0.00 0.00 71 1022.9
20220116130532 35 327 2.0 10.0 0.00 0.00 0.00 71 1022.8
20220116130056 35 313 3.0 10.0 0.00 0.00 0.00 71 1022.9
20220116125529 35 322 2.0 8.0 0.00 0.00 0.00 71 1023.1
20220116125027 35 322 3.0 8.0 0.00 0.00 0.00 71 1023.1
20220116124528 35 316 2.0 11.0 0.00 0.00 0.00 71 1023.0
20220116124023 35 337 3.0 11.0 0.00 0.00 0.00 71 1023.0
20220116123528 35 345 3.0 10.0 0.00 0.00 0.00 71 1022.8
20220116123029 35 20 2.0 10.0 0.00 0.00 0.00 71 1022.8
20220116122522 35 340 3.0 9.0 0.00 0.00 0.00 71 1022.6
20220116122021 35 333 3.0 9.0 0.00 0.00 0.00 71 1022.5
20220116121551 35 344 2.0 9.0 0.00 0.00 0.00 71 1022.3
20220116121021 35 355 3.0 9.0 0.00 0.00 0.00 71 1022.4
20220116120527 35 11 1.0 8.0 0.00 0.00 0.00 71 1022.2
20220116120110 35 9 3.0 8.0 0.00 0.00 0.00 71 1022.1
20220116115521 35 323 2.0 8.0 0.00 0.00 0.00 71 1021.9
20220116115019 35 324 2.0 9.0 0.00 0.00 0.00 71 1021.9
20220116114548 35 331 3.0 9.0 0.00 0.00 0.00 71 1021.8
20220116114018 35 261 2.0 8.0 0.00 0.00 0.00 71 1021.8
20220116113523 35 333 1.0 7.0 0.00 0.00 0.00 71 1021.8
20220116113031 35 317 1.0 5.0 0.00 0.00 0.00 71 1021.8
20220116112517 35 292 2.0 5.0 0.00 0.00 0.00 71 1021.8
20220116112021 35 307 1.0 5.0 0.00 0.00 0.00 71 1021.9
20220116111541 35 338 1.0 8.0 0.00 0.00 0.00 71 1021.9
20220116111040 35 323 0.0 8.0 0.00 0.00 0.00 70 1021.8
20220116110525 35 311 2.0 8.0 0.00 0.00 0.00 70 1021.8
20220116110047 35 242 3.0 8.0 0.00 0.00 0.00 70 1021.9
20220116105514 35 316 2.0 8.0 0.00 0.00 0.00 70 1022.0
20220116105023 35 319 3.0 9.0 0.00 0.00 0.00 70 1021.8
20220116104514 35 324 1.0 6.0 0.00 0.00 0.00 70 1021.9
20220116104013 35 307 3.0 6.0 0.00 0.00 0.00 69 1022.0
20220116103513 35 322 2.0 9.0 0.00 0.00 0.00 69 1022.0
20220116103012 35 308 3.0 9.0 0.00 0.00 0.00 69 1022.0
20220116102511 35 270 3.0 8.0 0.00 0.00 0.00 69 1021.9
20220116102011 35 269 1.0 7.0 0.00 0.00 0.00 69 1022.0
20220116101510 35 307 2.0 9.0 0.00 0.00 0.00 68 1021.8
20220116101009 35 313 1.0 9.0 0.00 0.00 0.00 68 1022.0
20220116100513 35 311 2.0 6.0 0.00 0.00 0.00 68 1022.1
20220116100009 35 324 1.0 8.0 0.00 0.00 0.00 68 1022.0
20220116095514 35 325 3.0 8.0 0.00 0.00 0.00 67 1022.0
20220116095007 35 338 2.0 10.0 0.00 0.00 0.00 67 1021.9
20220116094535 35 299 3.0 10.0 0.00 0.00 0.00 67 1022.1
20220116094007 35 326 3.0 8.0 0.00 0.00 0.00 66 1022.2
20220116093508 35 279 3.0 10.0 0.00 0.00 0.00 66 1022.4
20220116093011 35 331 5.0 10.0 0.00 0.00 0.00 66 1022.3
20220116092514 35 302 3.0 8.0 0.00 0.00 0.00 65 1022.4
20220116092006 35 341 3.0 8.0 0.00 0.00 0.00 65 1022.5
20220116091512 36 306 1.0 13.0 0.00 0.00 0.00 65 1022.4
20220116091003 36 344 4.0 13.0 0.00 0.00 0.00 64 1022.3
20220116090503 36 263 3.0 10.0 0.00 0.00 0.00 64 1022.6
20220116090004 36 302 3.0 14.0 0.00 0.00 0.00 64 1022.5
20220116085502 36 304 2.0 10.0 0.00 0.00 0.00 64 1022.6
20220116085000 36 330 5.0 10.0 0.00 0.00 0.00 64 1022.6
20220116084758 36 337 4.0 13.0 0.00 0.00 0.00 63 1022.6
20220116084059 36 345 6.0 13.0 0.00 0.00 0.00 63 1022.2
20220116083558 36 338 4.0 12.0 0.00 0.00 0.00 63 1022.2
20220116083111 36 281 2.0 14.0 0.00 0.00 0.00 63 1022.2
20220116082558 36 339 6.0 14.0 0.00 0.00 0.00 63 1022.2
20220116082104 36 10 4.0 11.0 0.00 0.00 0.00 62 1022.1
20220116081731 36 24 3.0 10.0 0.00 0.00 0.00 62 1022.2
20220116081054 36 290 3.0 10.0 0.00 0.00 0.00 62 1022.1
20220116080554 36 286 4.0 9.0 0.00 0.00 0.00 62 1022.2
20220116080307 36 61 3.0 12.0 0.00 0.00 0.00 62 1022.0
20220116075553 36 329 4.0 12.0 0.00 0.00 0.00 62 1021.9
20220116075110 36 338 3.0 10.0 0.00 0.00 0.00 62 1021.8
20220116074629 36 333 4.0 12.0 0.00 0.00 0.00 61 1022.1
20220116074051 36 328 3.0 12.0 0.00 0.00 0.00 61 1022.2
20220116073550 36 327 5.0 11.0 0.00 0.00 0.00 61 1021.9
20220116073059 36 323 3.0 10.0 0.00 0.00 0.00 61 1021.8
20220116072548 36 327 5.0 14.0 0.00 0.00 0.00 61 1021.1
20220116072047 37 15 6.0 16.0 0.00 0.00 0.00 60 1020.9
20220116071555 37 13 4.0 15.0 0.00 0.00 0.00 60 1020.7
20220116071049 37 270 7.0 14.0 0.00 0.00 0.00 60 1021.1
20220116070544 37 346 5.0 14.0 0.00 0.00 0.00 60 1022.9
20220116070106 37 328 6.0 14.0 0.00 0.00 0.00 59 1023.1
20220116065541 37 345 4.0 10.0 0.00 0.00 0.00 59 1022.9
20220116065040 37 323 4.0 13.0 0.00 0.00 0.00 59 1022.5
20220116064546 37 325 5.0 18.0 0.00 0.00 0.00 59 1022.4
20220116064037 37 338 4.0 13.0 0.00 0.00 0.00 59 1022.5
20220116063536 37 311 6.0 15.0 0.00 0.00 0.00 58 1022.5
20220116063035 37 298 7.0 15.0 0.00 0.00 0.00 58 1022.6
20220116062534 37 327 3.0 15.0 0.00 0.00 0.00 58 1022.7
20220116062033 37 300 3.0 16.0 0.00 0.00 0.00 58 1022.9
20220116061535 37 313 5.0 18.0 0.00 0.00 0.00 57 1022.8
20220116061034 37 310 5.0 18.0 0.00 0.00 0.00 57 1022.8
20220116060531 37 296 5.0 17.0 0.00 0.00 0.00 57 1022.9
20220116060050 37 355 4.0 11.0 0.00 0.00 0.00 57 1022.9
20220116055528 37 290 4.0 14.0 0.00 0.00 0.00 57 1022.9
20220116055028 37 355 7.0 14.0 0.00 0.00 0.00 56 1022.9
20220116054536 37 290 4.0 15.0 0.00 0.00 0.00 56 1023.0
20220116054100 37 30 5.0 13.0 0.00 0.00 0.00 56 1022.9
20220116053527 37 333 3.0 14.0 0.00 0.00 0.00 56 1023.1
20220116053052 38 346 5.0 14.0 0.00 0.00 0.00 55 1023.3
20220116052525 38 341 5.0 14.0 0.00 0.00 0.00 55 1023.4
20220116052027 38 307 7.0 14.0 0.00 0.00 0.00 55 1023.3
20220116051545 38 278 4.0 13.0 0.00 0.00 0.00 55 1023.4
20220116051024 38 331 4.0 20.0 0.00 0.00 0.00 54 1023.1
20220116050533 38 346 8.0 20.0 0.00 0.00 0.00 54 1023.4
20220116050030 38 336 4.0 15.0 0.00 0.00 0.00 54 1023.4
20220116045522 38 326 4.0 15.0 0.00 0.00 0.00 53 1023.4
20220116045021 38 286 6.0 18.0 0.00 0.00 0.00 53 1023.2
20220116044538 38 332 7.0 20.0 0.00 0.00 0.00 53 1023.5
20220116044026 38 345 4.0 20.0 0.00 0.00 0.00 52 1023.3
20220116043519 39 267 5.0 16.0 0.00 0.00 0.00 52 1023.3
20220116043016 39 291 7.0 16.0 0.00 0.00 0.00 52 1023.3
20220116042518 39 355 6.0 16.0 0.00 0.00 0.00 52 1023.2
20220116042012 39 10 6.0 16.0 0.00 0.00 0.00 51 1023.1
20220116041534 39 75 4.0 15.0 0.00 0.00 0.00 51 1023.1
20220116041010 39 284 6.0 15.0 0.00 0.00 0.00 51 1023.3
20220116040510 39 327 6.0 14.0 0.00 0.00 0.00 51 1023.1
20220116040018 40 297 2.0 15.0 0.00 0.00 0.00 50 1023.2
20220116035508 40 252 7.0 15.0 0.00 0.00 0.00 50 1023.1
20220116035007 40 317 5.0 15.0 0.00 0.00 0.00 50 1023.0
20220116034529 40 306 4.0 11.0 0.00 0.00 0.00 49 1023.0
20220116034009 40 20 2.0 14.0 0.00 0.00 0.00 49 1022.8
20220116033508 40 296 4.0 15.0 0.00 0.00 0.00 49 1022.8
20220116033017 40 304 3.0 15.0 0.00 0.00 0.00 49 1022.7
20220116032504 40 281 4.0 15.0 0.00 0.00 0.00 48 1022.7
20220116032003 41 315 6.0 15.0 0.00 0.00 0.00 48 1022.7
20220116031502 41 311 5.0 17.0 0.00 0.00 0.00 48 1022.9
20220116031003 41 321 4.0 14.0 0.00 0.00 0.00 48 1022.9
20220116030604 41 285 5.0 14.0 0.00 0.00 0.00 47 1022.7
20220116030217 41 308 3.0 15.0 0.00 0.00 0.00 48 1022.6
20220116025602 41 276 6.0 19.0 0.00 0.00 0.00 48 1022.8
20220116025100 41 321 6.0 19.0 0.00 0.00 0.00 47 1022.8
20220116024605 42 336 4.0 14.0 0.00 0.00 0.00 46 1022.7
20220116024100 42 311 5.0 14.0 0.00 0.00 0.00 46 1022.8
20220116023554 42 319 6.0 17.0 0.00 0.00 0.00 45 1022.8
20220116023143 42 317 7.0 20.0 0.00 0.00 0.00 46 1022.9
20220116022553 42 336 8.0 20.0 0.00 0.00 0.00 46 1022.7
20220116022052 42 312 4.0 13.0 0.00 0.00 0.00 47 1022.7
20220116021741 42 315 4.0 10.0 0.00 0.00 0.00 46 1022.6
20220116021054 42 360 2.0 13.0 0.00 0.00 0.00 46 1022.6
20220116020553 42 315 4.0 13.0 0.00 0.00 0.00 46 1022.5
20220116020143 42 334 3.0 15.0 0.00 0.00 0.00 46 1022.5
20220116015555 42 10 5.0 12.0 0.00 0.00 0.00 46 1022.5
20220116015050 42 284 4.0 10.0 0.00 0.00 0.00 46 1022.4
20220116014609 42 283 3.0 13.0 0.00 0.00 0.00 46 1022.5
20220116014043 42 261 3.0 11.0 0.00 0.00 0.00 46 1022.3
20220116013543 43 310 4.0 10.0 0.00 0.00 0.00 45 1022.1
20220116013057 43 279 3.0 11.0 0.00 0.00 0.00 45 1022.0
20220116012541 43 340 2.0 11.0 0.00 0.00 0.00 45 1022.0
20220116012039 43 307 3.0 10.0 0.00 0.00 0.00 45 1022.0
20220116011708 43 310 3.0 11.0 0.00 0.00 0.00 45 1021.7
20220116011038 43 303 2.0 12.0 0.00 0.00 0.00 45 1021.7
20220116010540 43 314 5.0 13.0 0.00 0.00 0.00 44 1021.7
20220116010037 43 296 3.0 14.0 0.00 0.00 0.00 44 1021.7
20220116005604 43 334 5.0 14.0 0.00 0.00 0.00 44 1021.7
20220116005040 44 360 6.0 13.0 0.00 0.00 0.00 44 1021.7
20220116004545 44 311 5.0 15.0 0.00 0.00 0.00 44 1021.6
20220116004120 44 313 5.0 15.0 0.00 0.00 0.00 43 1021.6
20220116003532 44 47 5.0 17.0 0.00 0.00 0.00 43 1021.5
20220116003037 44 355 5.0 14.0 0.00 0.00 0.00 43 1021.4
20220116002530 44 281 4.0 14.0 0.00 0.00 0.00 44 1021.2
20220116002032 44 339 5.0 15.0 0.00 0.00 0.00 43 1021.3
20220116001532 45 339 7.0 15.0 0.00 0.00 0.00 43 1021.1
20220116001031 45 286 6.0 12.0 0.00 0.00 0.00 43 1021.0
20220116000526 45 295 5.0 12.0 0.00 0.00 0.00 43 1021.1
20220116000027 45 283 5.0 12.0 0.00 0.00 0.00 43 1021.0
20220115235527 45 30 3.0 15.0 0.00 0.00 0.00 42 1020.9
20220115235025 45 292 6.0 15.0 0.00 0.00 0.00 42 1020.8
20220115234547 45 150 5.0 15.0 0.00 0.00 0.00 42 1020.6
20220115234026 46 232 6.0 16.0 0.00 0.00 0.00 41 1020.5
20220115233520 46 304 7.0 17.0 0.00 0.00 0.00 41 1020.6
20220115233055 46 307 7.0 17.0 0.00 0.00 0.00 41 1020.5
20220115232519 46 355 7.0 22.0 0.00 0.00 0.00 40 1020.3
20220115232020 46 321 7.0 25.0 0.00 0.00 0.00 40 1020.4
20220115231537 46 292 7.0 16.0 0.00 0.00 0.00 40 1020.3
20220115231033 46 84 5.0 17.0 0.00 0.00 0.00 40 1020.0
20220115230518 47 312 8.0 21.0 0.00 0.00 0.00 39 1020.1
20220115230023 47 287 7.0 21.0 0.00 0.00 0.00 39 1019.9
20220115225519 47 311 5.0 14.0 0.00 0.00 0.00 40 1019.9
20220115225018 47 262 4.0 16.0 0.00 0.00 0.00 40 1019.9
20220115224541 47 212 6.0 17.0 0.00 0.00 0.00 40 1019.7
20220115224017 47 288 7.0 19.0 0.00 0.00 0.00 39 1019.7
20220115223521 47 340 5.0 19.0 0.00 0.00 0.00 40 1019.5
20220115223032 47 290 8.0 18.0 0.00 0.00 0.00 40 1019.6
20220115222520 47 343 7.0 18.0 0.00 0.00 0.00 40 1019.5
20220115222016 47 304 6.0 18.0 0.00 0.00 0.00 39 1019.6
20220115221527 47 296 7.0 18.0 0.00 0.00 0.00 39 1019.4
20220115221015 48 271 5.0 13.0 0.00 0.00 0.00 40 1019.5
20220115220516 48 257 2.0 13.0 0.00 0.00 0.00 41 1019.2
20220115220020 48 335 6.0 16.0 0.00 0.00 0.00 40 1019.3
20220115215515 48 11 7.0 16.0 0.00 0.00 0.00 39 1019.2
20220115215016 48 264 7.0 16.0 0.00 0.00 0.00 39 1019.3
20220115214515 48 328 6.0 20.0 0.00 0.00 0.00 39 1019.3
20220115214014 48 309 7.0 20.0 0.00 0.00 0.00 39 1019.3
20220115213518 48 284 6.0 20.0 0.00 0.00 0.00 39 1019.2
20220115213022 48 289 5.0 19.0 0.00 0.00 0.00 40 1019.2
20220115212517 48 266 8.0 18.0 0.00 0.00 0.00 39 1019.1
20220115212013 48 334 9.0 19.0 0.00 0.00 0.00 40 1019.2
20220115211534 48 344 6.0 19.0 0.00 0.00 0.00 40 1019.0
20220115211013 48 244 7.0 16.0 0.00 0.00 0.00 40 1019.1
20220115210517 48 281 6.0 18.0 0.00 0.00 0.00 40 1019.1
20220115210052 48 267 6.0 19.0 0.00 0.00 0.00 40 1019.1
20220115205513 48 284 6.0 19.0 0.00 0.00 0.00 40 1019.1
20220115205013 48 284 8.0 20.0 0.00 0.00 0.00 41 1019.0
20220115204523 49 261 7.0 22.0 0.00 0.00 0.00 41 1018.8
20220115204016 49 312 9.0 22.0 0.00 0.00 0.00 40 1018.8
20220115203515 49 355 6.0 18.0 0.00 0.00 0.00 41 1018.8
20220115203030 48 348 9.0 20.0 0.00 0.00 0.00 41 1019.0
20220115202511 48 318 8.0 19.0 0.00 0.00 0.00 41 1018.9
20220115202033 48 333 9.0 19.0 0.00 0.00 0.00 41 1019.0
20220115201524 48 316 9.0 19.0 0.00 0.00 0.00 41 1018.9
20220115201014 49 5 8.0 20.0 0.00 0.00 0.00 42 1019.0
20220115200511 48 313 9.0 20.0 0.00 0.00 0.00 41 1019.1
20220115200034 49 290 10.0 20.0 0.00 0.00 0.00 40 1019.1
20220115195509 49 299 8.0 16.0 0.00 0.00 0.00 42 1019.0
20220115195013 49 324 6.0 20.0 0.00 0.00 0.00 44 1019.0
20220115194516 48 321 7.0 21.0 0.00 0.00 0.00 44 1019.2
20220115194008 48 334 7.0 21.0 0.00 0.00 0.00 43 1019.2
20220115193515 48 327 8.0 19.0 0.00 0.00 0.00 44 1019.3
20220115193019 48 259 8.0 19.0 0.00 0.00 0.00 44 1019.3